Regional Weather Roundup
Issued by NWS

Home | Current Version | Previous Version | Text Only | Print | Product List | Glossary On
Versions: 1 2 3 4 5 6 7 8 9 10 11 12 13 14 15 16 17 18 19 20 21 22 23 24 25 26 27 28 29 30 31 32 33 34 35 36 37 38 39 40 41 42 43 44 45 46 47 48 49 50
000
ASUS43 KTOP 301659
RWRKS

WEATHER ROUNDUP FOR KANSAS
NATIONAL WEATHER SERVICE GOODLAND KS
1200 PM CDT SUN AUG 30 2015

NOTE:  "FAIR" INDICATES FEW OR NO CLOUDS BELOW 12,000 FEET WITH NO
SIGNIFICANT WEATHER AND/OR OBSTRUCTIONS TO VISIBILITY.

KSZ001>006-013>018-027>032-041>047-301800-
NORTHWEST KANSAS

CITY           SKY/WX    TMP DP  RH WIND       PRES   REMARKS
GOODLAND       SUNNY     84  47  27 S21G29    30.07F
HAYS           SUNNY     79  57  47 SE9       30.06S
HILL CITY      SUNNY     85  60  42 E7        30.05S
RUSSELL        SUNNY     76  62  62 SE8       30.06F
$$

KSZ061>065-074>080-084>089-301800-
SOUTHWEST KANSAS

CITY           SKY/WX    TMP DP  RH WIND       PRES   REMARKS
DODGE CITY     SUNNY     79  54  41 VRB3      30.09S
ELKHART          N/A     83  59  44 S10         N/A
GARDEN CITY    SUNNY     84  48  28 S10       30.09S
GREAT BEND     SUNNY     73  63  68 SE8       30.07F
LIBERAL        SUNNY     82  54  36 S6        30.11F
PRATT          SUNNY     73  59  60 CALM      30.10S
$$

KSZ066>073-081>083-090>101-301800-
SOUTHEAST KANSAS

CITY           SKY/WX    TMP DP  RH WIND       PRES   REMARKS
CHANUTE        CLOUDY    76  70  82 NE5       30.05F
COFFEYVILLE    CLOUDY    79  72  79 VRB6      30.02F
HUTCHINSON     PTSUNNY   75  62  64 CALM      30.09F
NEWTON         PTSUNNY   73  61  64 SW3       30.10F
PARSONS        MOSUNNY   78  72  81 VRB3      30.04F
WICHITA INTL   MOSUNNY   78  67  68 N6        30.06F
WICHITA JABRA  PTSUNNY   77  67  71 VRB5      30.07S
WICHITA MCCONL DRIZZLE   75  55  50 NE6       30.07S
$$

KSZ007>012-019>026-033>040-048>060-102>105-301800-
NORTHEAST KANSAS

CITY           SKY/WX    TMP DP  RH WIND       PRES   REMARKS
CONCORDIA      CLOUDY    67  63  87 S9        30.09F
EMPORIA        MOSUNNY   78  69  73 NE5       30.06F
LAWRENCE       CLOUDY    75  69  81 VRB5      30.07S HAZE
MANHATTAN      PTSUNNY   72  66  81 CALM      30.08F
OLATHE IND     PTSUNNY   77  70  79 E5        30.07S
OLATHE EXE     PTSUNNY   76  70  82 E6        30.06S
SALINA         CLOUDY    70  63  78 S8        30.09F
TOPEKA BILLARD CLOUDY    72  69  90 CALM      30.07F
TOPEKA FORBES  CLOUDY    73  68  84 NE3       30.08S HAZE
$$


USA.gov is the U.S. government's official web portal to all federal, state and local government web resources and services.